AAL5383 KSFO-KLAX

Flight info

Callsign AAL5383
Flight time N/A
Altitude 31000
Route WESLA5 SUSEY EBAYE BURGL IRNMN2
Aircraft A20N/M-SDE2E3FGHIRWXY/LB1

Departure

Time 2026-05-05 23:32
Airport San Francisco International Airport (KSFO)

Arrival

Time N/A
Airport Los Angeles International Airport (KLAX)
Time Latitude Longitude Altitude Speed Heading
2026-05-05 23:17 37.61677 -122.38057 19 ft 0 kts 297°
2026-05-05 23:22 37.61677 -122.38056 19 ft 2 kts 297°
2026-05-05 23:22 37.61666 -122.38027 20 ft 4 kts 290°
2026-05-05 23:22 37.61657 -122.37995 21 ft 4 kts 291°
2026-05-05 23:23 37.61648 -122.37972 20 ft 4 kts 283°
2026-05-05 23:23 37.61649 -122.37959 22 ft 4 kts 282°
2026-05-05 23:23 37.61653 -122.37964 22 ft 4 kts 313°
2026-05-05 23:23 37.61675 -122.37963 20 ft 4 kts 14°
2026-05-05 23:24 37.61700 -122.37949 20 ft 1 kts 204°
2026-05-05 23:26 37.61698 -122.37949 20 ft 1 kts 186°
2026-05-05 23:26 37.61682 -122.37906 20 ft 13 kts 106°
2026-05-05 23:27 37.61667 -122.37791 21 ft 13 kts 97°
2026-05-05 23:27 37.61654 -122.37667 20 ft 15 kts 97°
2026-05-05 23:27 37.61641 -122.37528 21 ft 16 kts 97°
2026-05-05 23:27 37.61627 -122.37389 25 ft 15 kts 97°
2026-05-05 23:28 37.61610 -122.37257 26 ft 16 kts 109°
2026-05-05 23:28 37.61556 -122.37121 26 ft 18 kts 118°
2026-05-05 23:28 37.61493 -122.36976 27 ft 20 kts 123°
2026-05-05 23:28 37.61401 -122.36831 22 ft 23 kts 129°
2026-05-05 23:29 37.61319 -122.36654 20 ft 24 kts 117°
2026-05-05 23:29 37.61232 -122.36457 18 ft 27 kts 122°
2026-05-05 23:29 37.61144 -122.36252 20 ft 27 kts 118°
2026-05-05 23:29 37.61105 -122.36125 21 ft 10 kts 75°
2026-05-05 23:30 37.61164 -122.36067 18 ft 13 kts 31°
2026-05-05 23:30 37.61249 -122.36039 19 ft 14 kts 332°
2026-05-05 23:30 37.61279 -122.36091 17 ft 0 kts 298°
2026-05-05 23:31 37.61280 -122.36094 17 ft 1 kts 298°
2026-05-05 23:31 37.61402 -122.36383 16 ft 87 kts 298°
2026-05-05 23:31 37.61851 -122.37452 21 ft 183 kts 297°
2026-05-05 23:32 37.62508 -122.39007 521 ft 212 kts 298°
2026-05-05 23:32 37.63238 -122.40748 1204 ft 242 kts 297°
2026-05-05 23:32 37.64043 -122.42632 2498 ft 235 kts 298°
2026-05-05 23:32 37.64829 -122.44409 4100 ft 223 kts 299°
2026-05-05 23:33 37.65562 -122.46054 5566 ft 212 kts 299°
2026-05-05 23:33 37.66265 -122.47641 6983 ft 201 kts 297°
2026-05-05 23:33 37.66757 -122.49239 8317 ft 190 kts 282°
2026-05-05 23:33 37.66807 -122.50848 9552 ft 178 kts 261°
2026-05-05 23:34 37.66423 -122.52277 10709 ft 168 kts 240°
2026-05-05 23:34 37.65710 -122.53402 11711 ft 163 kts 221°
2026-05-05 23:34 37.64753 -122.54159 12570 ft 163 kts 202°
2026-05-05 23:34 37.63639 -122.54476 13342 ft 166 kts 183°
2026-05-05 23:35 37.62489 -122.54307 14058 ft 169 kts 164°
2026-05-05 23:35 37.61378 -122.53808 14760 ft 171 kts 158°
2026-05-05 23:35 37.60276 -122.53229 15430 ft 173 kts 158°
2026-05-05 23:35 37.59161 -122.52638 16067 ft 175 kts 158°
2026-05-05 23:36 37.58043 -122.52055 16671 ft 177 kts 158°
2026-05-05 23:36 37.56895 -122.51465 17264 ft 179 kts 158°
2026-05-05 23:36 37.55734 -122.50873 17836 ft 181 kts 159°
2026-05-05 23:36 37.54559 -122.50277 18382 ft 183 kts 159°
2026-05-05 23:37 37.53372 -122.49677 18901 ft 185 kts 159°
2026-05-05 23:37 37.52172 -122.49072 19394 ft 186 kts 159°
2026-05-05 23:37 37.50961 -122.48460 19885 ft 188 kts 158°
2026-05-05 23:37 37.49772 -122.47765 20342 ft 190 kts 151°
2026-05-05 23:38 37.48663 -122.46851 20785 ft 191 kts 142°
2026-05-05 23:38 37.47687 -122.45727 21217 ft 193 kts 134°
2026-05-05 23:38 37.46753 -122.44475 21649 ft 194 kts 133°
2026-05-05 23:38 37.45849 -122.43231 22052 ft 196 kts 133°
2026-05-05 23:39 37.44929 -122.41963 22463 ft 195 kts 133°
2026-05-05 23:39 37.44016 -122.40711 22913 ft 192 kts 133°
2026-05-05 23:39 37.43124 -122.39492 23375 ft 186 kts 133°
2026-05-05 23:39 37.42246 -122.38294 23667 ft 190 kts 133°
2026-05-05 23:40 37.41294 -122.37001 23661 ft 213 kts 133°
2026-05-05 23:40 37.40274 -122.35633 24107 ft 207 kts 134°
2026-05-05 23:40 37.39319 -122.34389 24801 ft 191 kts 135°
2026-05-05 23:40 37.38342 -122.33179 24917 ft 207 kts 137°
2026-05-05 23:41 37.37249 -122.31919 25023 ft 219 kts 139°
2026-05-05 23:41 37.36119 -122.30728 25652 ft 203 kts 142°
2026-05-05 23:41 37.34990 -122.29671 26067 ft 201 kts 146°
2026-05-05 23:41 37.33777 -122.28688 26053 ft 219 kts 150°
2026-05-05 23:42 37.32791 -122.27998 26248 ft 221 kts 153°
2026-05-05 23:42 37.31412 -122.27198 26845 ft 206 kts 159°
2026-05-05 23:42 37.30061 -122.26618 27131 ft 208 kts 166°
2026-05-05 23:42 37.28590 -122.26216 27129 ft 224 kts 172°
2026-05-05 23:43 37.27042 -122.26040 27461 ft 219 kts 180°
2026-05-05 23:43 37.25565 -122.26135 27975 ft 208 kts 189°
2026-05-05 23:43 37.24129 -122.26519 28084 ft 218 kts 198°
2026-05-05 23:43 37.22670 -122.27246 28113 ft 229 kts 208°
2026-05-05 23:44 37.21343 -122.28288 28546 ft 219 kts 219°
2026-05-05 23:44 37.20272 -122.29563 28933 ft 214 kts 231°
2026-05-05 23:44 37.19416 -122.31168 28971 ft 225 kts 245°
2026-05-05 23:44 37.18872 -122.33013 29084 ft 230 kts 258°
2026-05-05 23:45 37.18714 -122.34965 29499 ft 221 kts 274°
2026-05-05 23:45 37.18985 -122.36843 29736 ft 221 kts 290°
2026-05-05 23:45 37.19711 -122.38597 29719 ft 233 kts 308°
2026-05-05 23:45 37.20874 -122.40028 29914 ft 234 kts 327°
2026-05-05 23:46 37.22321 -122.40866 30279 ft 227 kts 348°
2026-05-05 23:46 37.23901 -122.40986 30409 ft 232 kts 10°
2026-05-05 23:46 37.25457 -122.40308 30398 ft 243 kts 33°
2026-05-05 23:46 37.26681 -122.38866 30599 ft 241 kts 59°
2026-05-05 23:47 37.27250 -122.37072 30860 ft 238 kts 85°
2026-05-05 23:47 37.27102 -122.35024 30901 ft 244 kts 114°
2026-05-05 23:47 37.26122 -122.33266 30904 ft 251 kts 145°
2026-05-05 23:47 37.24546 -122.32431 31108 ft 247 kts 179°
2026-05-05 23:48 37.23075 -122.32749 31229 ft 246 kts 211°
2026-05-05 23:48 37.21879 -122.34258 31202 ft 252 kts 250°
2026-05-05 23:48 37.21725 -122.36440 31116 ft 263 kts 283°
2026-05-05 23:48 37.22268 -122.38861 30216 ft 315 kts 286°
2026-05-05 23:49 37.22933 -122.41693 29445 ft 360 kts 286°
2026-05-05 23:49 37.23676 -122.44861 28929 ft 394 kts 286°
2026-05-05 23:49 37.24470 -122.48249 28491 ft 424 kts 286°
2026-05-05 23:49 37.25328 -122.51908 28127 ft 449 kts 286°
2026-05-05 23:50 37.26638 -122.55164 30050 ft 406 kts 308°
2026-05-05 23:50 37.28743 -122.57448 30824 ft 403 kts 334°
2026-05-05 23:50 37.31440 -122.58209 31444 ft 399 kts
2026-05-05 23:50 37.34118 -122.57478 32093 ft 395 kts 25°
2026-05-05 23:51 37.36315 -122.55482 32743 ft 389 kts 49°
2026-05-05 23:51 37.37652 -122.52571 33378 ft 383 kts 75°
2026-05-05 23:51 37.38005 -122.49284 34003 ft 377 kts 86°
2026-05-05 23:51 37.38123 -122.47111 34389 ft 374 kts 86°
2026-05-05 23:52 37.38300 -122.43863 34933 ft 370 kts 86°
2026-05-05 23:52 37.38475 -122.40643 35434 ft 367 kts 86°
2026-05-05 23:52 37.38648 -122.37459 35892 ft 364 kts 86°
2026-05-05 23:52 37.38820 -122.34287 36321 ft 362 kts 86°
2026-05-05 23:53 37.38640 -122.31176 36726 ft 356 kts 109°
2026-05-05 23:53 37.37389 -122.28564 37149 ft 348 kts 134°
2026-05-05 23:53 37.35681 -122.26378 37325 ft 352 kts 135°
2026-05-05 23:53 37.33944 -122.24177 37495 ft 356 kts 135°
2026-05-05 23:54 37.32193 -122.21958 37675 ft 359 kts 135°
2026-05-05 23:54 37.30427 -122.19722 37860 ft 362 kts 135°
2026-05-05 23:54 37.28650 -122.17473 38063 ft 364 kts 135°
2026-05-05 23:54 37.26861 -122.15209 38260 ft 366 kts 135°
2026-05-05 23:55 37.23216 -122.10601 38162 ft 386 kts 135°
2026-05-05 23:55 37.21289 -122.08167 38028 ft 399 kts 135°
2026-05-05 23:55 37.19308 -122.05667 37969 ft 409 kts 135°
2026-05-05 23:56 37.15213 -122.00503 37996 ft 425 kts 135°
2026-05-05 23:56 37.10998 -121.95193 38153 ft 438 kts 135°
2026-05-05 23:57 37.08834 -121.92469 38260 ft 443 kts 135°
2026-05-05 23:57 37.06651 -121.89722 38390 ft 448 kts 135°
2026-05-05 23:57 37.04445 -121.86948 38531 ft 452 kts 135°
2026-05-05 23:57 37.02216 -121.84146 38683 ft 456 kts 135°
2026-05-05 23:58 36.99965 -121.81318 38845 ft 459 kts 135°
2026-05-05 23:58 36.97703 -121.78477 39014 ft 462 kts 135°